Вернуться в каталог

HULIANWANG DIGUI-87

АктивенСвязьLEO
NORAD 65995·PAYLOAD·🇨🇳 China

Запущен Oct 16, 2025 с Wenchang Space Launch Site

Loading…

Ближайшие Пролёты (ближайшие 24 часа)

TLE

СвежийSource: Space-Track

Эпоха: Sep 14, 2026, 22:18 UTC

1 65995U 25231A   26257.92928871 -.00000092  00000-0  69899-4 0  9992
2 65995  49.9986 213.9502 0000315  20.4023 339.6862 13.29328003 44829

Отслеживайте HULIANWANG DIGUI-87 в реальном времени с AllMySat

Download on the App Store